Tracking 19832 objects as of 24-Aug-2019
HD Live streaming from Space Station
objects crossing your sky now

SCOUT B-1 DEB

Track SCOUT B-1 DEB now!
10-day predictions


NORAD ID: 6284
Int'l Code: 1972-069D
Perigee: 661.0 km
Apogee: 722.0 km
Inclination: 90.4 °
Period: 98.4 minutes
Semi major axis: 7062 km
RCS: 0.034 m2 (small)
Launch date: September 2, 1972
Source: United States (US)
Launch site: AIR FORCE WESTERN TEST RANGE (AFWTR)

Note: This is SATELLITE DEBRIS
aabbcc
Your satellite tracking list
Your tracking list is empty




NASA's NSSDC Master Catalog

Two Line Element Set (TLE):
1  6284U 72069D   19236.10531287  .00000215  00000-0  39339-4 0  9991
2  6284  90.4408 204.2724 0043248 260.7194  98.9128 14.62732451383633
Source of the keplerian elements: AFSPC